,,,PA_Meas_PMT16A,,PR_Meas_QMR101_102,,RH_Meas_QMH101,,SR_Meas_QMS101,,TA_Meas_QMH101,,GenWind,,GenWind,
date,time,status,PA,status,PR,status,RH,status,SR,status,TA,status,DirAvg,status,SpdAvg,
2014-01-25, 00:00:05,VALID,1011.34,VALID,0,VALID,104,VALID,0,VALID,22.7766,VALID,331,VALID,0,
2014-01-25, 00:01:05,VALID,1011.35,VALID,0,VALID,104,VALID,0,VALID,22.7961,VALID,331,VALID,0,
2014-01-25, 00:02:05,VALID,1011.34,VALID,0,VALID,104,VALID,0,VALID,22.7978,VALID,331,VALID,0,
2014-01-25, 00:03:05,VALID,1011.35,VALID,0,VALID,104,VALID,0,VALID,22.7978,VALID,331,VALID,0,
2014-01-25, 00:04:05,VALID,1011.37,VALID,0,VALID,104,VALID,0,VALID,22.8173,VALID,331,VALID,0,
2014-01-25, 00:05:05,VALID,1011.34,VALID,0,VALID,104,VALID,0,VALID,22.7766,VALID,331,VALID,0,
2014-01-25, 00:06:05,VALID,1011.32,VALID,0,VALID,104,VALID,0,VALID,22.7571,VALID,331,VALID,0,
2014-01-25, 00:07:05,VALID,1011.32,VALID,0,VALID,104,VALID,0,VALID,22.7571,VALID,331,VALID,0,
2014-01-25, 00:08:05,VALID,1011.28,VALID,0,VALID,104,VALID,0,VALID,22.7783,VALID,331,VALID,0,
2014-01-25, 00:09:05,VALID,1011.31,VALID,0,VALID,104,VALID,0,VALID,22.7766,VALID,331,VALID,0,
2014-01-25, 00:10:05,VALID,1011.28,VALID,0,VALID,104,VALID,0,VALID,22.7766,VALID,331,VALID,0,
2014-01-25, 00:11:05,VALID,1011.29,VALID,0,VALID,104,VALID,0,VALID,22.7766,VALID,331,VALID,0,
2014-01-25, 00:12:05,VALID,1011.29,VALID,0,VALID,104,VALID,0,VALID,22.8368,VALID,331,VALID,0,
2014-01-25, 00:13:05,VALID,1011.3,VALID,0,VALID,104,VALID,0,VALID,22.8562,VALID,331,VALID,0,
2014-01-25, 00:14:05,VALID,1011.29,VALID,0,VALID,104,VALID,0,VALID,22.8757,VALID,331,VALID,0,
2014-01-25, 00:15:05,VALID,1011.3,VALID,0,VALID,104,VALID,0,VALID,22.835,VALID,331,VALID,0,
2014-01-25, 00:16:05,VALID,1011.3,VALID,0,VALID,104,VALID,0,VALID,22.8562,VALID,331,VALID,0.00429688,
2014-01-25, 00:17:05,VALID,1011.28,VALID,0,VALID,104,VALID,0,VALID,22.8368,VALID,331,VALID,0,
2014-01-25, 00:18:05,VALID,1011.26,VALID,0,VALID,104,VALID,0,VALID,22.8562,VALID,331,VALID,0,
2014-01-25, 00:19:05,VALID,1011.26,VALID,0,VALID,104,VALID,0.112112,VALID,22.835,VALID,331,VALID,0,
2014-01-25, 00:20:05,VALID,1011.22,VALID,0,VALID,104,VALID,0,VALID,22.8173,VALID,331,VALID,0,
2014-01-25, 00:21:05,VALID,1011.23,VALID,0,VALID,104,VALID,0,VALID,22.8173,VALID,332,VALID,0,
2014-01-25, 00:22:05,VALID,1011.23,VALID,0,VALID,104,VALID,0,VALID,22.7766,VALID,332,VALID,0,
2014-01-25, 00:23:05,VALID,1011.2,VALID,0,VALID,104,VALID,0,VALID,22.7978,VALID,331,VALID,0,
2014-01-25, 00:24:05,VALID,1011.23,VALID,0,VALID,104,VALID,0,VALID,22.7766,VALID,331,VALID,0,
2014-01-25, 00:25:05,VALID,1011.23,VALID,0,VALID,104,VALID,0,VALID,22.7766,VALID,331,VALID,0,
2014-01-25, 00:26:05,VALID,1011.22,VALID,0,VALID,104,VALID,0,VALID,22.7783,VALID,331,VALID,0,
2014-01-25, 00:27:05,VALID,1011.18,VALID,0,VALID,104,VALID,0,VALID,22.7766,VALID,332,VALID,0,
2014-01-25, 00:28:05,VALID,1011.15,VALID,0,VALID,104,VALID,0,VALID,22.7978,VALID,331,VALID,0,
2014-01-25, 00:29:05,VALID,1011.12,VALID,0,VALID,104,VALID,0,VALID,22.7571,VALID,332,VALID,0.00429688,
2014-01-25, 00:30:05,VALID,1011.11,VALID,0,VALID,104,VALID,0,VALID,22.7588,VALID,331,VALID,0,
2014-01-25, 00:31:05,VALID,1011.1,VALID,0,VALID,104,VALID,0,VALID,22.7588,VALID,331,VALID,0,
2014-01-25, 00:32:05,VALID,1011.09,VALID,0,VALID,104,VALID,0,VALID,22.7182,VALID,332,VALID,0,
2014-01-25, 00:33:05,VALID,1011.08,VALID,0,VALID,104,VALID,0,VALID,22.6987,VALID,331,VALID,0,
2014-01-25, 00:34:05,VALID,1011.07,VALID,0,VALID,104,VALID,0,VALID,22.7004,VALID,332,VALID,0,
2014-01-25, 00:35:05,VALID,1011.06,VALID,0,VALID,104,VALID,0,VALID,22.6614,VALID,332,VALID,0,
2014-01-25, 00:36:05,VALID,1011.02,VALID,0,VALID,104,VALID,0,VALID,22.642,VALID,332,VALID,0,
2014-01-25, 00:37:05,VALID,1010.99,VALID,0,VALID,104,VALID,0,VALID,22.6225,VALID,331,VALID,0,
2014-01-25, 00:38:05,VALID,1010.97,VALID,0,VALID,104,VALID,0,VALID,22.6013,VALID,331,VALID,0,
2014-01-25, 00:39:05,VALID,1010.95,VALID,0,VALID,104,VALID,0,VALID,22.5818,VALID,332,VALID,0,
2014-01-25, 00:40:05,VALID,1010.9,VALID,0,VALID,104,VALID,0,VALID,22.5818,VALID,331,VALID,0,
2014-01-25, 00:41:05,VALID,1010.88,VALID,0,VALID,104,VALID,0,VALID,22.5623,VALID,332,VALID,0,
2014-01-25, 00:42:05,VALID,1010.86,VALID,0,VALID,104,VALID,0,VALID,22.5623,VALID,331,VALID,0,
2014-01-25, 00:43:05,VALID,1010.89,VALID,0,VALID,104,VALID,0,VALID,22.5623,VALID,331,VALID,0,
2014-01-25, 00:44:05,VALID,1010.88,VALID,0,VALID,104,VALID,0,VALID,22.642,VALID,331,VALID,0.228906,
2014-01-25, 00:45:05,VALID,1010.85,VALID,0,VALID,104,VALID,0.112112,VALID,22.6809,VALID,331,VALID,0.0253906,
2014-01-25, 00:46:05,VALID,1010.82,VALID,0,VALID,104,VALID,0,VALID,22.6792,VALID,331,VALID,0.146875,
2014-01-25, 00:47:05,VALID,1010.81,VALID,0,VALID,104,VALID,0,VALID,22.7182,VALID,331,VALID,0.186719,
2014-01-25, 00:48:05,VALID,1010.83,VALID,0,VALID,104,VALID,0,VALID,22.7376,VALID,331,VALID,0.207422,
2014-01-25, 00:49:05,VALID,1010.8,VALID,0,VALID,104,VALID,0,VALID,22.7182,VALID,331,VALID,0.0929687,
2014-01-25, 00:50:05,VALID,1010.76,VALID,0,VALID,104,VALID,0.112112,VALID,22.7182,VALID,331,VALID,0,
2014-01-25, 00:51:05,VALID,1010.75,VALID,0,VALID,104,VALID,0,VALID,22.6987,VALID,331,VALID,0,
2014-01-25, 00:52:05,VALID,1010.74,VALID,0,VALID,104,VALID,0.112112,VALID,22.6792,VALID,331,VALID,0,
2014-01-25, 00:53:05,VALID,1010.72,VALID,0,VALID,104,VALID,0,VALID,22.6402,VALID,331,VALID,0,
2014-01-25, 00:54:05,VALID,1010.71,VALID,0,VALID,104,VALID,0,VALID,22.642,VALID,331,VALID,0,
2014-01-25, 00:55:05,VALID,1010.71,VALID,0,VALID,104,VALID,0,VALID,22.6208,VALID,331,VALID,0,
2014-01-25, 00:56:05,VALID,1010.69,VALID,0,VALID,104,VALID,0,VALID,22.6208,VALID,331,VALID,0,
2014-01-25, 00:57:05,VALID,1010.68,VALID,0,VALID,104,VALID,0,VALID,22.6614,VALID,331,VALID,0,
2014-01-25, 00:58:05,VALID,1010.67,VALID,0,VALID,104,VALID,0,VALID,22.6614,VALID,331,VALID,0,
2014-01-25, 00:59:05,VALID,1010.68,VALID,0,VALID,104,VALID,0,VALID,22.6402,VALID,331,VALID,0,
2014-01-25, 01:00:05,VALID,1010.68,VALID,0,VALID,104,VALID,0,VALID,22.6208,VALID,331,VALID,0,
2014-01-25, 01:01:05,VALID,1010.67,VALID,0,VALID,104,VALID,0,VALID,22.6614,VALID,331,VALID,0,
2014-01-25, 01:02:05,VALID,1010.66,VALID,0,VALID,104,VALID,0,VALID,22.6225,VALID,331,VALID,0,
2014-01-25, 01:03:05,VALID,1010.65,VALID,0,VALID,104,VALID,0,VALID,22.603,VALID,332,VALID,0,
2014-01-25, 01:04:05,VALID,1010.62,VALID,0,VALID,104,VALID,0,VALID,22.5429,VALID,331,VALID,0,
2014-01-25, 01:05:05,VALID,1010.62,VALID,0,VALID,104,VALID,0,VALID,22.5446,VALID,331,VALID,0,
2014-01-25, 01:06:05,VALID,1010.59,VALID,0,VALID,104,VALID,0,VALID,22.4844,VALID,331,VALID,0,
2014-01-25, 01:07:05,VALID,1010.55,VALID,0,VALID,104,VALID,0.112112,VALID,22.4861,VALID,331,VALID,0,
2014-01-25, 01:08:05,VALID,1010.52,VALID,0,VALID,104,VALID,0.112112,VALID,22.4861,VALID,331,VALID,0,
2014-01-25, 01:09:05,VALID,1010.52,VALID,0,VALID,104,VALID,0,VALID,22.4861,VALID,331,VALID,0,
2014-01-25, 01:10:05,VALID,1010.48,VALID,0,VALID,104,VALID,0,VALID,22.465,VALID,331,VALID,0,
2014-01-25, 01:11:05,VALID,1010.48,VALID,0,VALID,104,VALID,0,VALID,22.4472,VALID,331,VALID,0,
2014-01-25, 01:12:05,VALID,1010.45,VALID,0,VALID,104,VALID,0.112112,VALID,22.4472,VALID,331,VALID,0,
2014-01-25, 01:13:05,VALID,1010.42,VALID,0,VALID,104,VALID,0,VALID,22.4472,VALID,331,VALID,0,
2014-01-25, 01:14:05,VALID,1010.39,VALID,0,VALID,104,VALID,0,VALID,22.4065,VALID,332,VALID,0,
2014-01-25, 01:15:05,VALID,1010.36,VALID,0,VALID,104,VALID,0.112112,VALID,22.426,VALID,331,VALID,0,
2014-01-25, 01:16:05,VALID,1010.37,VALID,0,VALID,104,VALID,0,VALID,22.4667,VALID,331,VALID,0,
2014-01-25, 01:17:05,VALID,1010.38,VALID,0,VALID,104,VALID,0,VALID,22.4277,VALID,331,VALID,0,
2014-01-25, 01:18:05,VALID,1010.4,VALID,0,VALID,104,VALID,0,VALID,22.387,VALID,331,VALID,0,
2014-01-25, 01:19:05,VALID,1010.36,VALID,0,VALID,104,VALID,0,VALID,22.4082,VALID,331,VALID,0,
2014-01-25, 01:20:05,VALID,1010.36,VALID,0,VALID,104,VALID,0,VALID,22.387,VALID,332,VALID,0,
2014-01-25, 01:21:05,VALID,1010.33,VALID,0,VALID,104,VALID,0,VALID,22.387,VALID,331,VALID,0,
2014-01-25, 01:22:05,VALID,1010.31,VALID,0,VALID,104,VALID,0,VALID,22.4277,VALID,331,VALID,0,
2014-01-25, 01:23:05,VALID,1010.31,VALID,0,VALID,104,VALID,0,VALID,22.4277,VALID,332,VALID,0,
2014-01-25, 01:24:05,VALID,1010.31,VALID,0,VALID,104,VALID,0,VALID,22.4472,VALID,331,VALID,0.235547,
2014-01-25, 01:25:05,VALID,1010.32,VALID,0,VALID,104,VALID,0.112112,VALID,22.426,VALID,332,VALID,0.273047,
2014-01-25, 01:26:05,VALID,1010.31,VALID,0,VALID,104,VALID,0,VALID,22.4472,VALID,331,VALID,0,
2014-01-25, 01:27:05,VALID,1010.34,VALID,0,VALID,104,VALID,0.112112,VALID,22.4472,VALID,331,VALID,0.349609,
2014-01-25, 01:28:05,VALID,1010.33,VALID,0,VALID,104,VALID,0.112112,VALID,22.4455,VALID,331,VALID,0.065625,
2014-01-25, 01:29:05,VALID,1010.33,VALID,0,VALID,104,VALID,0,VALID,22.465,VALID,331,VALID,0.160938,
2014-01-25, 01:30:05,VALID,1010.32,VALID,0,VALID,104,VALID,0.112112,VALID,22.4455,VALID,331,VALID,0.00273437,
2014-01-25, 01:31:05,VALID,1010.31,VALID,0,VALID,104,VALID,0,VALID,22.4455,VALID,332,VALID,0.317578,
2014-01-25, 01:32:05,VALID,1010.27,VALID,0,VALID,104,VALID,0,VALID,22.4455,VALID,332,VALID,0.0078125,
2014-01-25, 01:33:05,VALID,1010.3,VALID,0,VALID,104,VALID,0,VALID,22.465,VALID,332,VALID,0,
2014-01-25, 01:34:05,VALID,1010.3,VALID,0,VALID,104,VALID,0,VALID,22.465,VALID,331,VALID,0,
2014-01-25, 01:35:05,VALID,1010.32,VALID,0,VALID,104,VALID,0,VALID,22.4455,VALID,331,VALID,0,
2014-01-25, 01:36:05,VALID,1010.3,VALID,0,VALID,104,VALID,0,VALID,22.4455,VALID,332,VALID,0,
2014-01-25, 01:37:05,VALID,1010.27,VALID,0,VALID,104,VALID,0,VALID,22.4667,VALID,331,VALID,0,
2014-01-25, 01:38:05,VALID,1010.27,VALID,0,VALID,104,VALID,0,VALID,22.426,VALID,331,VALID,0,
2014-01-25, 01:39:05,VALID,1010.26,VALID,0,VALID,104,VALID,0,VALID,22.4277,VALID,332,VALID,0.0773437,
2014-01-25, 01:40:05,VALID,1010.24,VALID,0,VALID,104,VALID,0,VALID,22.426,VALID,332,VALID,0.0773437,
2014-01-25, 01:41:05,VALID,1010.26,VALID,0,VALID,104,VALID,0,VALID,22.4065,VALID,331,VALID,0,
2014-01-25, 01:42:05,VALID,1010.26,VALID,0,VALID,104,VALID,0,VALID,22.4065,VALID,331,VALID,0,
2014-01-25, 01:43:05,VALID,1010.27,VALID,0,VALID,104,VALID,0,VALID,22.387,VALID,331,VALID,0,
2014-01-25, 01:44:05,VALID,1010.27,VALID,0,VALID,104,VALID,0.112112,VALID,22.3887,VALID,331,VALID,0,
2014-01-25, 01:45:05,VALID,1010.26,VALID,0,VALID,104,VALID,0.112112,VALID,22.3693,VALID,331,VALID,0,
2014-01-25, 01:46:05,VALID,1010.27,VALID,0,VALID,104,VALID,0.112112,VALID,22.3481,VALID,331,VALID,0.0417969,
2014-01-25, 01:47:05,VALID,1010.27,VALID,0,VALID,104,VALID,0.112112,VALID,22.3481,VALID,331,VALID,0.158594,
2014-01-25, 01:48:04,VALID,1010.24,VALID,0,VALID,104,VALID,0,VALID,22.3676,VALID,331,VALID,0.0953125,
2014-01-25, 01:49:04,VALID,1010.24,VALID,0,VALID,104,VALID,0,VALID,22.3481,VALID,331,VALID,0.135156,
2014-01-25, 01:50:04,VALID,1010.26,VALID,0,VALID,104,VALID,0.112112,VALID,22.3481,VALID,331,VALID,0.00117188,
2014-01-25, 01:51:04,VALID,1010.27,VALID,0,VALID,104,VALID,0,VALID,22.3693,VALID,331,VALID,0.23125,
2014-01-25, 01:52:04,VALID,1010.25,VALID,0,VALID,104,VALID,0.112112,VALID,22.3286,VALID,331,VALID,0.266406,
2014-01-25, 01:53:04,VALID,1010.24,VALID,0,VALID,104,VALID,0,VALID,22.3286,VALID,331,VALID,0,
2014-01-25, 01:54:04,VALID,1010.23,VALID,0,VALID,104,VALID,0,VALID,22.3091,VALID,331,VALID,0.0507813,
2014-01-25, 01:55:04,VALID,1010.22,VALID,0,VALID,104,VALID,0.112112,VALID,22.3498,VALID,331,VALID,0.276172,
2014-01-25, 01:56:04,VALID,1010.21,VALID,0,VALID,104,VALID,0.112112,VALID,22.3481,VALID,331,VALID,0.119141,
2014-01-25, 01:57:04,VALID,1010.2,VALID,0,VALID,104,VALID,0,VALID,22.3693,VALID,331,VALID,0.000390625,
2014-01-25, 01:58:04,VALID,1010.19,VALID,0,VALID,104,VALID,0,VALID,22.3693,VALID,331,VALID,0.0796875,
2014-01-25, 01:59:04,VALID,1010.18,VALID,0,VALID,104,VALID,0,VALID,22.3498,VALID,331,VALID,0,
2014-01-25, 02:00:04,VALID,1010.18,VALID,0,VALID,104,VALID,0,VALID,22.3091,VALID,331,VALID,0,
2014-01-25, 02:01:04,VALID,1010.14,VALID,0,VALID,104,VALID,0.112112,VALID,22.3303,VALID,331,VALID,0,
2014-01-25, 02:02:04,VALID,1010.1,VALID,0,VALID,104,VALID,0.112112,VALID,22.3108,VALID,331,VALID,0,
2014-01-25, 02:03:04,VALID,1010.08,VALID,0,VALID,104,VALID,0,VALID,22.2897,VALID,331,VALID,0,
2014-01-25, 02:04:04,VALID,1010.1,VALID,0,VALID,104,VALID,0,VALID,22.2702,VALID,331,VALID,0,
2014-01-25, 02:05:04,VALID,1010.09,VALID,0,VALID,104,VALID,0,VALID,22.2507,VALID,331,VALID,0,
2014-01-25, 02:06:04,VALID,1010.1,VALID,0,VALID,104,VALID,0.112112,VALID,22.2507,VALID,331,VALID,0,
2014-01-25, 02:07:04,VALID,1010.08,VALID,0,VALID,104,VALID,0,VALID,22.2118,VALID,331,VALID,0,
2014-01-25, 02:08:04,VALID,1010.07,VALID,0,VALID,104,VALID,0.112112,VALID,22.2118,VALID,331,VALID,0,
2014-01-25, 02:09:04,VALID,1010.06,VALID,0,VALID,104,VALID,0.112112,VALID,22.1923,VALID,331,VALID,0,
2014-01-25, 02:10:04,VALID,1010.04,VALID,0,VALID,104,VALID,0.112112,VALID,22.194,VALID,331,VALID,0,
2014-01-25, 02:11:04,VALID,1010.05,VALID,0,VALID,104,VALID,0.112112,VALID,22.1728,VALID,332,VALID,0,
2014-01-25, 02:12:04,VALID,1010.05,VALID,0,VALID,104,VALID,0,VALID,22.1533,VALID,331,VALID,0,
2014-01-25, 02:13:04,VALID,1010.05,VALID,0,VALID,104,VALID,0,VALID,22.155,VALID,331,VALID,0,
2014-01-25, 02:14:04,VALID,1010.06,VALID,0,VALID,104,VALID,0.112112,VALID,22.1144,VALID,331,VALID,0,
2014-01-25, 02:15:04,VALID,1010.05,VALID,0,VALID,104,VALID,0,VALID,22.0754,VALID,331,VALID,0,
2014-01-25, 02:16:04,VALID,1010.02,VALID,0,VALID,104,VALID,0.112112,VALID,22.0771,VALID,331,VALID,0,
2014-01-25, 02:17:04,VALID,1010.04,VALID,0,VALID,104,VALID,0,VALID,22.0365,VALID,331,VALID,0,
2014-01-25, 02:18:04,VALID,1010.01,VALID,0,VALID,104,VALID,0.112112,VALID,22.0576,VALID,332,VALID,0,
2014-01-25, 02:19:04,VALID,1010.05,VALID,0,VALID,104,VALID,0,VALID,22.017,VALID,332,VALID,0.0207031,
2014-01-25, 02:20:04,VALID,1010.04,VALID,0,VALID,104,VALID,0.112112,VALID,21.9975,VALID,332,VALID,0.0375,
2014-01-25, 02:21:04,VALID,1010.04,VALID,0,VALID,104,VALID,0,VALID,21.9586,VALID,331,VALID,0,
2014-01-25, 02:22:04,VALID,1010.04,VALID,0,VALID,104,VALID,0.112112,VALID,21.9391,VALID,331,VALID,0.0332031,
2014-01-25, 02:23:04,VALID,1010.05,VALID,0,VALID,104,VALID,0.112112,VALID,21.9408,VALID,331,VALID,0,
2014-01-25, 02:24:04,VALID,1010.04,VALID,0,VALID,104,VALID,0,VALID,21.9213,VALID,331,VALID,0,
2014-01-25, 02:25:04,VALID,1010.06,VALID,0,VALID,104,VALID,0,VALID,21.9408,VALID,331,VALID,0,
2014-01-25, 02:26:04,VALID,1010.04,VALID,0,VALID,104,VALID,0.112112,VALID,21.9408,VALID,331,VALID,0,
2014-01-25, 02:27:04,VALID,1010.04,VALID,0,VALID,104,VALID,0.112112,VALID,21.9196,VALID,331,VALID,0,
2014-01-25, 02:28:04,VALID,1010.05,VALID,0,VALID,104,VALID,0.112112,VALID,21.9213,VALID,331,VALID,0,
2014-01-25, 02:29:04,VALID,1010.05,VALID,0,VALID,104,VALID,0.112112,VALID,21.9018,VALID,331,VALID,0,
2014-01-25, 02:30:04,VALID,1010.06,VALID,0,VALID,104,VALID,0.112112,VALID,21.8807,VALID,331,VALID,0,
2014-01-25, 02:31:04,VALID,1010.06,VALID,0,VALID,104,VALID,0.112112,VALID,21.8418,VALID,331,VALID,0,
2014-01-25, 02:32:04,VALID,1010.06,VALID,0,VALID,104,VALID,0.112112,VALID,21.8629,VALID,331,VALID,0,
2014-01-25, 02:33:04,VALID,1010.06,VALID,0,VALID,104,VALID,0.112112,VALID,21.8434,VALID,331,VALID,0,
2014-01-25, 02:34:04,VALID,1010.06,VALID,0,VALID,104,VALID,0.112112,VALID,21.8223,VALID,331,VALID,0,
2014-01-25, 02:35:04,VALID,1010.06,VALID,0,VALID,104,VALID,0,VALID,21.8434,VALID,331,VALID,0,
2014-01-25, 02:36:04,VALID,1010.08,VALID,0,VALID,104,VALID,0.112112,VALID,21.8223,VALID,331,VALID,0,
2014-01-25, 02:37:04,VALID,1010.08,VALID,0,VALID,104,VALID,0.112112,VALID,21.8629,VALID,332,VALID,0,
2014-01-25, 02:38:04,VALID,1010.08,VALID,0,VALID,104,VALID,0.112112,VALID,21.8418,VALID,331,VALID,0,
2014-01-25, 02:39:04,VALID,1010.07,VALID,0,VALID,104,VALID,0.112112,VALID,21.8223,VALID,331,VALID,0,
2014-01-25, 02:40:04,VALID,1010.03,VALID,0,VALID,104,VALID,0.112112,VALID,21.8223,VALID,331,VALID,0,
2014-01-25, 02:41:04,VALID,1010.04,VALID,0,VALID,104,VALID,0.112112,VALID,21.7833,VALID,331,VALID,0,
2014-01-25, 02:42:04,VALID,1010.06,VALID,0,VALID,104,VALID,0.112112,VALID,21.7639,VALID,331,VALID,0,
2014-01-25, 02:43:04,VALID,1010.04,VALID,0,VALID,104,VALID,0,VALID,21.746,VALID,331,VALID,0,
2014-01-25, 02:44:04,VALID,1010.05,VALID,0,VALID,104,VALID,0.112112,VALID,21.7071,VALID,332,VALID,0,
2014-01-25, 02:45:04,VALID,1010.05,VALID,0,VALID,104,VALID,0.112112,VALID,21.6665,VALID,331,VALID,0,
2014-01-25, 02:46:04,VALID,1010.01,VALID,0,VALID,104,VALID,0.112112,VALID,21.6681,VALID,331,VALID,0,
2014-01-25, 02:47:04,VALID,1009.98,VALID,0,VALID,104,VALID,0.112112,VALID,21.647,VALID,331,VALID,0,
2014-01-25, 02:48:04,VALID,1009.98,VALID,0,VALID,104,VALID,0.112112,VALID,21.6276,VALID,331,VALID,0,
2014-01-25, 02:49:04,VALID,1009.96,VALID,0,VALID,104,VALID,0,VALID,21.6487,VALID,331,VALID,0,
2014-01-25, 02:50:04,VALID,1009.89,VALID,0,VALID,104,VALID,0.112112,VALID,21.647,VALID,331,VALID,0.0835937,
2014-01-25, 02:51:04,VALID,1009.88,VALID,0,VALID,104,VALID,0.112112,VALID,21.647,VALID,331,VALID,0.0773437,
2014-01-25, 02:52:04,VALID,1009.89,VALID,0,VALID,104,VALID,0.112112,VALID,21.6487,VALID,332,VALID,0.0824219,
2014-01-25, 02:53:04,VALID,1009.89,VALID,0,VALID,104,VALID,0,VALID,21.647,VALID,332,VALID,0.290234,
2014-01-25, 02:54:04,VALID,1009.84,VALID,0,VALID,104,VALID,0.112112,VALID,21.647,VALID,331,VALID,0.121094,
2014-01-25, 02:55:04,VALID,1009.84,VALID,0,VALID,104,VALID,0.112112,VALID,21.6487,VALID,332,VALID,0,
2014-01-25, 02:56:04,VALID,1009.81,VALID,0,VALID,104,VALID,0.112112,VALID,21.6276,VALID,331,VALID,0,
2014-01-25, 02:57:04,VALID,1009.79,VALID,0,VALID,104,VALID,0,VALID,21.5902,VALID,331,VALID,0,
2014-01-25, 02:58:04,VALID,1009.78,VALID,0,VALID,104,VALID,0,VALID,21.5497,VALID,331,VALID,0.139453,
2014-01-25, 02:59:04,VALID,1009.78,VALID,0,VALID,104,VALID,0,VALID,21.5708,VALID,331,VALID,0,
2014-01-25, 03:00:04,VALID,1009.74,VALID,0,VALID,104,VALID,0,VALID,21.5107,VALID,331,VALID,0,
2014-01-25, 03:01:04,VALID,1009.73,VALID,0,VALID,104,VALID,0,VALID,21.5318,VALID,357,VALID,0.725391,
2014-01-25, 03:02:04,VALID,1009.71,VALID,0,VALID,104,VALID,0,VALID,21.5302,VALID,359,VALID,0.294141,
2014-01-25, 03:03:04,VALID,1009.69,VALID,0,VALID,104,VALID,0.112112,VALID,21.5497,VALID,359,VALID,0.189453,
2014-01-25, 03:04:04,VALID,1009.73,VALID,0,VALID,104,VALID,0.112112,VALID,21.5691,VALID,359,VALID,0.161328,
2014-01-25, 03:05:04,VALID,1009.69,VALID,0,VALID,104,VALID,0.112112,VALID,21.5513,VALID,359,VALID,0,
2014-01-25, 03:06:04,VALID,1009.69,VALID,0,VALID,104,VALID,0.112112,VALID,21.4718,VALID,359,VALID,0.19375,
2014-01-25, 03:07:04,VALID,1009.65,VALID,0,VALID,104,VALID,0.112112,VALID,21.4913,VALID,359,VALID,0.405469,
2014-01-25, 03:08:04,VALID,1009.63,VALID,0,VALID,104,VALID,0.112112,VALID,21.5497,VALID,359,VALID,0.592188,
2014-01-25, 03:09:04,VALID,1009.63,VALID,0,VALID,104,VALID,0,VALID,21.5691,VALID,359,VALID,0.572266,
2014-01-25, 03:10:04,VALID,1009.63,VALID,0,VALID,104,VALID,0.112112,VALID,21.6487,VALID,359,VALID,0.341016,
2014-01-25, 03:11:04,VALID,1009.66,VALID,0,VALID,104,VALID,0,VALID,21.6276,VALID,359,VALID,0.256641,
2014-01-25, 03:12:04,VALID,1009.65,VALID,0,VALID,104,VALID,0.112112,VALID,21.6487,VALID,36,VALID,0.712109,
2014-01-25, 03:13:04,VALID,1009.66,VALID,0,VALID,104,VALID,0.112112,VALID,21.6665,VALID,30,VALID,0.812891,
2014-01-25, 03:14:04,VALID,1009.7,VALID,0,VALID,104,VALID,0.112112,VALID,21.7444,VALID,30,VALID,0.501562,
2014-01-25, 03:15:04,VALID,1009.69,VALID,0,VALID,104,VALID,0,VALID,21.7833,VALID,29,VALID,0.208203,
2014-01-25, 03:16:04,VALID,1009.71,VALID,0,VALID,104,VALID,0,VALID,21.8045,VALID,29,VALID,0.0375,
2014-01-25, 03:17:04,VALID,1009.73,VALID,0,VALID,104,VALID,0,VALID,21.8028,VALID,30,VALID,0.0277344,
2014-01-25, 03:18:04,VALID,1009.74,VALID,0,VALID,104,VALID,0.112112,VALID,21.8028,VALID,30,VALID,0,
2014-01-25, 03:19:04,VALID,1009.76,VALID,0,VALID,104,VALID,0.112112,VALID,21.8239,VALID,29,VALID,0.934375,
2014-01-25, 03:20:04,VALID,1009.76,VALID,0,VALID,104,VALID,0.112112,VALID,21.8629,VALID,29,VALID,0.582031,
2014-01-25, 03:21:04,VALID,1009.73,VALID,0,VALID,104,VALID,0,VALID,21.8807,VALID,30,VALID,0.248047,
2014-01-25, 03:22:04,VALID,1009.74,VALID,0,VALID,104,VALID,0.112112,VALID,21.9018,VALID,30,VALID,0.242578,
2014-01-25, 03:23:04,VALID,1009.74,VALID,0,VALID,102.605,VALID,0.112112,VALID,21.8807,VALID,29,VALID,0.200391,
2014-01-25, 03:24:04,VALID,1009.74,VALID,0,VALID,102.681,VALID,0.112112,VALID,21.8824,VALID,29,VALID,0.3375,
2014-01-25, 03:25:04,VALID,1009.78,VALID,0,VALID,102.513,VALID,0.112112,VALID,21.8824,VALID,29,VALID,0.138672,
2014-01-25, 03:26:04,VALID,1009.74,VALID,0,VALID,102.727,VALID,0.112112,VALID,21.8418,VALID,29,VALID,0.213281,
2014-01-25, 03:27:04,VALID,1009.74,VALID,0,VALID,103.108,VALID,0,VALID,21.8629,VALID,30,VALID,0.142188,
2014-01-25, 03:28:04,VALID,1009.75,VALID,0,VALID,103.359,VALID,0,VALID,21.8629,VALID,29,VALID,0,
2014-01-25, 03:29:04,VALID,1009.75,VALID,0,VALID,103.756,VALID,0.112112,VALID,21.8028,VALID,30,VALID,0,
2014-01-25, 03:30:04,VALID,1009.76,VALID,0,VALID,104,VALID,0.112112,VALID,21.7639,VALID,30,VALID,0,
2014-01-25, 03:31:04,VALID,1009.77,VALID,0,VALID,104,VALID,0.112112,VALID,21.7249,VALID,30,VALID,0,
2014-01-25, 03:32:04,VALID,1009.76,VALID,0,VALID,104,VALID,0,VALID,21.7054,VALID,30,VALID,0,
2014-01-25, 03:33:04,VALID,1009.78,VALID,0,VALID,104,VALID,0.112112,VALID,21.6665,VALID,30,VALID,0,
2014-01-25, 03:34:04,VALID,1009.79,VALID,0,VALID,104,VALID,0.112112,VALID,21.6665,VALID,30,VALID,0,
2014-01-25, 03:35:04,VALID,1009.8,VALID,0,VALID,104,VALID,0.112112,VALID,21.647,VALID,30,VALID,0,
2014-01-25, 03:36:04,VALID,1009.82,VALID,0,VALID,104,VALID,0,VALID,21.6276,VALID,30,VALID,0,
2014-01-25, 03:37:04,VALID,1009.8,VALID,0,VALID,104,VALID,0.112112,VALID,21.6081,VALID,30,VALID,0,
2014-01-25, 03:38:04,VALID,1009.79,VALID,0,VALID,104,VALID,0.112112,VALID,21.5691,VALID,30,VALID,0,
2014-01-25, 03:39:04,VALID,1009.84,VALID,0,VALID,104,VALID,0.112112,VALID,21.5497,VALID,30,VALID,0,
2014-01-25, 03:40:04,VALID,1009.84,VALID,0,VALID,104,VALID,0.112112,VALID,21.5708,VALID,30,VALID,0,
2014-01-25, 03:41:04,VALID,1009.85,VALID,0,VALID,104,VALID,0.112112,VALID,21.5107,VALID,30,VALID,0.0925781,
2014-01-25, 03:42:04,VALID,1009.85,VALID,0,VALID,104,VALID,0.112112,VALID,21.4913,VALID,30,VALID,0,
2014-01-25, 03:43:04,VALID,1009.85,VALID,0,VALID,104,VALID,0.112112,VALID,21.4718,VALID,30,VALID,0,
2014-01-25, 03:44:04,VALID,1009.83,VALID,0,VALID,104,VALID,0.112112,VALID,21.4539,VALID,30,VALID,0,
2014-01-25, 03:45:04,VALID,1009.82,VALID,0,VALID,104,VALID,0,VALID,21.4328,VALID,30,VALID,0.139062,
2014-01-25, 03:46:04,VALID,1009.83,VALID,0,VALID,104,VALID,0,VALID,21.3939,VALID,30,VALID,0,
2014-01-25, 03:47:04,VALID,1009.87,VALID,0,VALID,104,VALID,0.112112,VALID,21.3744,VALID,30,VALID,0,
2014-01-25, 03:48:04,VALID,1009.86,VALID,0,VALID,104,VALID,0.112112,VALID,21.3955,VALID,30,VALID,0.05625,
2014-01-25, 03:49:04,VALID,1009.89,VALID,0,VALID,104,VALID,0.112112,VALID,21.3744,VALID,30,VALID,0.236719,
2014-01-25, 03:50:04,VALID,1009.87,VALID,0,VALID,104,VALID,0,VALID,21.415,VALID,30,VALID,0.122656,
2014-01-25, 03:51:04,VALID,1009.87,VALID,0,VALID,104,VALID,0,VALID,21.3955,VALID,30,VALID,0.207813,
2014-01-25, 03:52:04,VALID,1009.87,VALID,0,VALID,104,VALID,0,VALID,21.3566,VALID,30,VALID,0.0730469,
2014-01-25, 03:53:04,VALID,1009.84,VALID,0,VALID,104,VALID,0.112112,VALID,21.316,VALID,30,VALID,0.211719,
2014-01-25, 03:54:04,VALID,1009.84,VALID,0,VALID,104,VALID,0,VALID,21.2965,VALID,30,VALID,0.303516,
2014-01-25, 03:55:04,VALID,1009.85,VALID,0,VALID,104,VALID,0,VALID,21.2787,VALID,30,VALID,0.223828,
2014-01-25, 03:56:04,VALID,1009.83,VALID,0,VALID,104,VALID,0,VALID,21.2803,VALID,30,VALID,0.0105469,
2014-01-25, 03:57:04,VALID,1009.84,VALID,0,VALID,104,VALID,0,VALID,21.2397,VALID,30,VALID,0.0828125,